Location: Darlington Observatory
(36.4817°N, 105.8156°W)
Time: 15:17:57
(UTC-07:00)

MOS 1 - Visible Passes

Search period start: 05 February 2016 00:00
Search period end: 15 February 2016 00:00
Orbit: 879 x 891 km, 99.3° (Epoch: 05 February)

Date Brightness Start Highest point End Pass type
(mag) Time Alt. Az. Time Alt. Az. Time Alt. Az.
05 Feb 6.2 04:56:48 10° NE 05:01:42 30° E 05:06:34 10° SSE visible
05 Feb 7.2 18:07:55 10° SW 18:12:01 20° W 18:16:09 10° NW visible
06 Feb 6.3 04:55:09 10° NE 04:59:59 28° E 05:04:47 10° SSE visible
06 Feb 7.2 18:06:06 10° SW 18:10:19 21° W 18:14:32 10° NW visible
07 Feb 6.3 04:53:30 10° NE 04:58:17 27° E 05:03:01 10° SSE visible
07 Feb 7.2 18:04:18 10° SW 18:08:36 22° W 18:12:56 10° NW visible
08 Feb 6.4 04:51:53 10° NE 04:56:35 26° E 05:01:14 10° SSE visible
08 Feb 7.2 18:02:30 10° SW 18:06:54 23° W 18:11:18 10° NW visible
09 Feb 6.5 04:50:14 10° NE 04:54:52 25° E 04:59:27 10° SSE visible
09 Feb 4.7 06:31:02 10° N 06:36:15 39° WNW 06:41:28 10° SW visible
09 Feb 7.1 18:00:42 10° SSW 18:05:11 24° W 18:09:41 10° NW visible
10 Feb 6.5 04:48:36 10° NE 04:53:09 24° E 04:57:39 10° SSE visible
10 Feb 4.7 06:29:18 10° N 06:34:35 41° WNW 06:39:49 10° SW visible
10 Feb 7.0 17:58:55 10° SSW 18:03:29 25° W 18:08:04 10° NW visible
11 Feb 6.6 04:46:59 10° NE 04:51:26 23° E 04:55:51 10° SSE visible
12 Feb 6.7 04:45:22 10° NE 04:49:44 23° E 04:54:03 10° SE visible
12 Feb 4.6 06:25:52 10° N 06:31:12 44° WNW 06:36:31 10° SW visible
13 Feb 6.7 04:43:45 10° NE 04:48:01 22° E 04:52:15 10° SE visible
13 Feb 4.6 06:24:09 10° N 06:29:32 46° WNW 06:34:52 10° SW visible
14 Feb 6.8 04:42:08 10° NE 04:46:18 21° E 04:50:27 10° SE visible
14 Feb 4.5 06:22:26 10° N 06:27:50 47° WNW 06:33:12 10° SW visible
